STARLINK-31890, 59785

Orbit data source: Space-Track

STARLINK-31890, 59785 is a payload satellite owned by SpaceX/Seattle (US) in LEO that was launched on Sat, 18 May 2024 UTC via an FALCON 9 launch vehicle from the Air Force Eastern Test Range (AFETR). Payloads include a variety of satellites, spacecraft, and rockets equipped with specific instruments for various scientific and technological missions. These include communications satellites like Starlink; space stations such as the ISS; scientific satellites like the Hubble; Earth observation satellites from companies like Planet Labs, Umbra, and HawkEye 360; GPS; miniature CubeSats for education and research; and military/defense satellites.

Loading next visibility...
STARLINK-31890 details
Identifier
59785, 2024-093D
Orbit
LEO
Last TLE update21 hours ago
Origin
Flag of USSpaceX/Seattle (US)
ManufacturerSpaceX/Seattle
MissionOperational spacecraft
Bus & MotorSTARLINK V2M, Unknown motor
Mass730 kg wet, ~700 kg dry
Launch date (UTC)
2024-05-18 (8 months ago)
Launch vehicle
FALCON 9
Launch site
Air Force Eastern Test Range (AFETR)
Object type
Payload
Rocket body
Debris
Shape & HBRUnknown
Radar Cross SectionLarge (>1 m²)

Expand to show TLE details & history

TLE from 21 hours ago
0 STARLINK-31890
1 59785U 24093D   25014.42874347 -.00004553  00000-0 -10190-3 0  9996
2 59785  42.9973  61.9654 0000999 249.4375 110.6374 15.40675208 38496
Epoch: 2025-01-14T10:17Z
Definitive object data (Epoch: 2025-01-14T10:17:23.435Z)
Latitude-0.00005°
Longitude153.48212°
Altitude444.129 km
Speed7.647 km/s
True Right ascension04h 07m 51s
True Declination0° 00' 00"
Sunlit
Object was in full shadow at TLE epoch
Visualization TLE readout
Latitude41.9884°
Longitude-137.73606°
Altitude447.703 km
Speed7.649 km/s
Apparent Right ascension13h 40m 40s
Apparent Declination16° 41' 20"
Sunlit
Object is in full shadow
Visualization observer readout
Local Sidereal Time07:30:38
Azimuth75.519° E
Elevation8.75°
Doppler factor1
Orbital elements
Apogee altitude446.754 km
Perigee altitude445.39 km
Semi-major axis6,824.209 km
Eccentricity0.0000999
Inclination42.9973°
RAAN61.9654°
Arg. of periapsis249.4375°
True anomaly110.64811°
Mean anomaly110.6374°
Eccentric anomaly110.64276°
Mean motion3.85004 °/min
BSTAR-0.0001019
Orbital period93.51 mins
Loading maneuver chart data...
Loading historical data...
Loading historical data...
Loading historical data...
Loading historical data...
Loading historical data...
Loading historical data...
Loading historical data...

STARLINK-31890 Visibility forecast

Observer location: undefined°, undefined

Span
Click to sort rows by Start time (UTC) header in descending order
Start Az.
Max El. time (UTC)
Max El. Az.
Max El.
End time (UTC)
End Az.
6 mins2025-01-15 08:22:11.940Z273.805° WNW2025-01-15 08:25:11.940Z322.217° NNW37.344°2025-01-15 08:28:11.940Z67.443° ENE
5 mins2025-01-15 10:02:11.940Z298.686° NW2025-01-15 10:04:11.940Z32.938° NE40.154°2025-01-15 10:07:11.940Z90.909° ESE
5 mins2025-01-15 11:40:11.940Z267.333° W2025-01-15 11:42:11.940Z195.79° SSW34.315°2025-01-15 11:45:11.940Z135.125° SSE
5 mins2025-01-16 06:05:11.940Z217.93° SW2025-01-16 06:07:11.940Z153.544° SSE35.777°2025-01-16 06:10:11.940Z81.106° E
|